Notices

What's New in latest Release from April 7th, 2021:

- Updated Glossary, including Speed of Maximum Gust, and Total Hourly Precipitation

- Updated national and regional climate services offices contacts and prices information

- Addition of station inventory lists for 1981-2010, 1971-2000, and 1961-1990 Normals.

If you haven't already, please take our survey and provide feedback about our website: https://eccc.sondage-survey.ca/f/LanguageSelection.aspx?s=442ca660-fcf1-47c0-95a9-59707d6fd709

Hourly Data Report for October 05, 2003

TORONTO CITY
ONTARIO

43°40'00.000" N
79°24'00.000" W
112.50 m
6158355
71508
XTO

Download Data

Hourly Data (October 2003)
Hourly Data Report for October 5, 2003
TIME
LST
Temp Definition
°C
Dew Point Definition
°C
Rel Hum Definition
%
Precip. Amount Definition
mm

Wind Dir Definition
10's deg

Wind Spd Definition
km/h
Visibility Definition
km
Stn Press Definition
kPa
Hmdx Definition


Wind Chill Definition


Weather Definition


00:00 5.5 2.8 83   LegendMM LegendMM LegendMM 99.56     LegendNANA
01:00 5.5 2.7 82   LegendMM LegendMM LegendMM 99.55     LegendNANA
02:00 5.5 2.4 80   LegendMM LegendMM LegendMM 99.54     LegendNANA
03:00 5.3 2.1 80   LegendMM LegendMM LegendMM 99.57     LegendNANA
04:00 5.0 1.8 80   LegendMM LegendMM LegendMM 99.61     LegendNANA
05:00 4.5 2.0 84   LegendMM LegendMM LegendMM 99.69     LegendNANA
06:00 4.3 2.0 85   LegendMM LegendMM LegendMM 99.75     LegendNANA
07:00 4.4 1.9 84   LegendMM LegendMM LegendMM 99.83     LegendNANA
08:00 5.6 2.2 79   LegendMM LegendMM LegendMM 99.88     LegendNANA
09:00 7.7 2.7 71   LegendMM LegendMM LegendMM 99.93     LegendNANA
10:00 8.6 2.7 66   LegendMM LegendMM LegendMM 99.97     LegendNANA
11:00 9.6 2.2 60   LegendMM LegendMM LegendMM 99.99     LegendNANA
12:00 10.7 1.5 53   LegendMM LegendMM LegendMM 100.00     LegendNANA
13:00 10.3 2.1 57   LegendMM LegendMM LegendMM 100.00     LegendNANA
14:00 11.2 1.6 52   LegendMM LegendMM LegendMM 100.00     LegendNANA
15:00 10.8 2.4 56   LegendMM LegendMM LegendMM 100.05     LegendNANA
16:00 10.2 2.6 59   LegendMM LegendMM LegendMM 100.11     LegendNANA
17:00 9.7 2.3 60   LegendMM LegendMM LegendMM 100.16     LegendNANA
18:00 9.2 2.5 63   LegendMM LegendMM LegendMM 100.23     LegendNANA
19:00 8.1 1.4 63   LegendMM LegendMM LegendMM 100.27     LegendNANA
20:00 7.1 1.9 69   LegendMM LegendMM LegendMM 100.33     LegendNANA
21:00 6.4 2.0 73   LegendMM LegendMM LegendMM 100.37     LegendNANA
22:00 5.6 1.8 77   LegendMM LegendMM LegendMM 100.39     LegendNANA
23:00 5.2 1.9 79   LegendMM LegendMM LegendMM 100.41     LegendNANA

Notes on Data Quality.

Legend

  • E = Estimated
  • M = Missing
  • NA = Not Available*
  • [empty] = Indicates an unobserved value
Date modified: